Time,TemperatureF,DewpointF,PressureIn,WindDirection,WindDirectionDegrees,WindSpeedMPH,WindSpeedGustMPH,Humidity,HourlyPrecipIn,Conditions,Clouds,dailyrainin,SoftwareType,DateUTC
2013-08-06 00:00:00,76.8,75.7,30.01,SSW,211,0.0,0.0,97,0.00,,,0.00,WUHU216PEETBRO,2013-08-06 04:00:00,
2013-08-06 00:01:00,76.8,75.7,30.01,SSW,211,0.0,0.0,97,0.00,,,0.00,WUHU216PEETBRO,2013-08-06 04:01:00,
2013-08-06 00:02:00,76.9,75.8,30.01,SSW,211,0.0,0.0,97,0.00,,,0.00,WUHU216PEETBRO,2013-08-06 04:02:00,
2013-08-06 00:07:00,76.8,75.7,30.01,SSW,211,0.0,0.0,96,0.00,,,0.00,WUHU216PEETBRO,2013-08-06 04:07:00,
2013-08-06 00:12:00,76.8,75.7,30.01,SSW,211,0.0,0.0,97,0.00,,,0.00,WUHU216PEETBRO,2013-08-06 04:12:00,
2013-08-06 00:17:00,76.8,75.7,30.01,SSW,211,0.0,0.0,96,0.00,,,0.00,WUHU216PEETBRO,2013-08-06 04:17:00,
2013-08-06 00:22:00,76.8,75.7,30.01,SSW,211,0.0,0.0,97,0.00,,,0.00,WUHU216PEETBRO,2013-08-06 04:22:00,
2013-08-06 00:27:00,76.7,75.6,30.01,SSW,211,0.0,0.0,97,0.00,,,0.00,WUHU216PEETBRO,2013-08-06 04:27:00,
2013-08-06 00:32:00,76.9,75.8,30.01,SSW,211,0.0,0.0,97,0.00,,,0.00,WUHU216PEETBRO,2013-08-06 04:32:00,
2013-08-06 00:37:00,76.8,75.7,30.00,SSW,211,4.2,4.2,97,0.00,,,0.00,WUHU216PEETBRO,2013-08-06 04:37:00,
2013-08-06 00:42:00,76.6,75.6,30.00,SSW,211,0.0,4.2,97,0.00,,,0.00,WUHU216PEETBRO,2013-08-06 04:42:00,
2013-08-06 00:47:00,76.5,75.5,29.99,SSW,211,0.0,0.0,97,0.00,,,0.00,WUHU216PEETBRO,2013-08-06 04:47:00,
2013-08-06 00:52:00,76.5,75.5,29.99,SSW,210,0.0,6.1,97,0.00,,,0.00,WUHU216PEETBRO,2013-08-06 04:52:00,
2013-08-06 00:57:00,76.4,75.4,29.99,SSW,210,0.0,6.1,97,0.00,,,0.00,WUHU216PEETBRO,2013-08-06 04:57:00,
2013-08-06 01:02:00,76.5,75.5,29.99,SSW,210,0.0,0.0,97,0.00,,,0.00,WUHU216PEETBRO,2013-08-06 05:02:00,
2013-08-06 01:07:00,76.4,75.4,29.98,SSW,210,0.0,0.0,97,0.00,,,0.00,WUHU216PEETBRO,2013-08-06 05:07:00,
2013-08-06 01:12:00,76.4,75.5,29.98,SSW,210,0.0,0.0,97,0.00,,,0.00,WUHU216PEETBRO,2013-08-06 05:12:00,
2013-08-06 01:17:00,76.5,75.6,29.98,SW,223,0.0,2.5,97,0.00,,,0.00,WUHU216PEETBRO,2013-08-06 05:17:00,
2013-08-06 01:22:00,76.5,75.6,29.98,SW,223,0.0,2.5,97,0.00,,,0.00,WUHU216PEETBRO,2013-08-06 05:22:00,
2013-08-06 01:27:00,76.4,75.5,29.98,SW,223,0.0,0.0,97,0.00,,,0.00,WUHU216PEETBRO,2013-08-06 05:27:00,
2013-08-06 01:32:00,76.4,75.5,29.98,SW,223,0.0,0.0,97,0.00,,,0.00,WUHU216PEETBRO,2013-08-06 05:32:00,
2013-08-06 01:37:00,76.3,75.4,29.98,SW,223,0.0,0.0,97,0.00,,,0.00,WUHU216PEETBRO,2013-08-06 05:37:00,
2013-08-06 01:42:00,76.2,75.3,29.97,SW,223,0.0,0.0,97,0.00,,,0.00,WUHU216PEETBRO,2013-08-06 05:42:00,
2013-08-06 01:47:00,76.2,75.3,29.97,SW,223,0.0,0.0,97,0.00,,,0.00,WUHU216PEETBRO,2013-08-06 05:47:00,
2013-08-06 01:52:00,76.1,75.1,29.97,SW,223,0.0,0.0,97,0.00,,,0.00,WUHU216PEETBRO,2013-08-06 05:52:00,
2013-08-06 01:57:00,76.0,75.1,29.98,SW,223,0.0,0.0,97,0.00,,,0.00,WUHU216PEETBRO,2013-08-06 05:57:00,
2013-08-06 02:02:00,75.9,74.9,29.97,SW,223,0.0,0.0,97,0.00,,,0.00,WUHU216PEETBRO,2013-08-06 06:02:00,
2013-08-06 02:07:00,75.8,74.9,29.97,SW,223,0.0,0.0,97,0.00,,,0.00,WUHU216PEETBRO,2013-08-06 06:07:00,
2013-08-06 02:12:00,75.9,75.1,29.97,SW,223,0.0,0.0,97,0.00,,,0.00,WUHU216PEETBRO,2013-08-06 06:12:00,
2013-08-06 02:17:00,76.0,75.1,29.97,SW,223,0.0,0.0,97,0.00,,,0.00,WUHU216PEETBRO,2013-08-06 06:17:00,
2013-08-06 02:22:00,75.9,75.0,29.96,SW,223,0.0,0.0,97,0.00,,,0.00,WUHU216PEETBRO,2013-08-06 06:22:00,
2013-08-06 02:27:00,75.9,75.0,29.96,SW,223,0.0,0.0,97,0.00,,,0.00,WUHU216PEETBRO,2013-08-06 06:27:00,
2013-08-06 02:32:00,75.8,74.9,29.96,SW,223,0.0,0.0,97,0.00,,,0.00,WUHU216PEETBRO,2013-08-06 06:32:00,
2013-08-06 02:37:00,76.0,75.2,29.96,SW,223,0.0,0.0,97,0.00,,,0.00,WUHU216PEETBRO,2013-08-06 06:37:00,
2013-08-06 02:42:00,76.0,75.1,29.96,SW,223,0.0,0.0,97,0.00,,,0.00,WUHU216PEETBRO,2013-08-06 06:42:00,
2013-08-06 02:47:00,76.0,75.1,29.95,SW,223,0.0,0.0,97,0.00,,,0.00,WUHU216PEETBRO,2013-08-06 06:47:00,
2013-08-06 02:52:00,75.9,75.0,29.95,SW,223,0.0,0.0,97,0.00,,,0.00,WUHU216PEETBRO,2013-08-06 06:52:00,
2013-08-06 02:57:00,75.9,75.0,29.95,SW,223,0.0,0.0,97,0.00,,,0.00,WUHU216PEETBRO,2013-08-06 06:57:00,
2013-08-06 03:02:00,75.8,74.9,29.94,SW,223,0.0,0.0,97,0.00,,,0.00,WUHU216PEETBRO,2013-08-06 07:02:00,
2013-08-06 03:07:00,75.7,74.9,29.94,SW,223,0.0,0.0,97,0.00,,,0.00,WUHU216PEETBRO,2013-08-06 07:07:00,
2013-08-06 03:12:00,75.8,75.0,29.94,SW,223,0.0,0.0,97,0.00,,,0.00,WUHU216PEETBRO,2013-08-06 07:12:00,
2013-08-06 03:17:00,75.8,74.9,29.94,SW,223,0.0,0.0,97,0.00,,,0.00,WUHU216PEETBRO,2013-08-06 07:17:00,
2013-08-06 03:22:00,75.7,74.9,29.94,SW,223,0.0,0.0,97,0.00,,,0.00,WUHU216PEETBRO,2013-08-06 07:22:00,
2013-08-06 03:27:00,75.7,74.9,29.94,SW,223,0.0,0.0,97,0.00,,,0.00,WUHU216PEETBRO,2013-08-06 07:27:00,
2013-08-06 03:32:00,75.5,74.6,29.95,SW,223,0.0,0.0,97,0.00,,,0.00,WUHU216PEETBRO,2013-08-06 07:32:00,
2013-08-06 03:37:00,75.4,74.6,29.94,SW,223,0.0,0.0,97,0.00,,,0.00,WUHU216PEETBRO,2013-08-06 07:37:00,
2013-08-06 03:42:00,75.4,74.6,29.94,SW,223,0.0,0.0,97,0.00,,,0.00,WUHU216PEETBRO,2013-08-06 07:42:00,
2013-08-06 03:47:00,75.5,74.7,29.94,SW,223,0.0,0.0,98,0.00,,,0.00,WUHU216PEETBRO,2013-08-06 07:47:00,
2013-08-06 03:52:00,75.6,74.8,29.94,SW,223,0.0,0.0,98,0.00,,,0.00,WUHU216PEETBRO,2013-08-06 07:52:00,
2013-08-06 03:57:00,75.4,74.6,29.93,SW,223,0.0,0.0,98,0.00,,,0.00,WUHU216PEETBRO,2013-08-06 07:57:00,
2013-08-06 04:02:00,75.4,74.6,29.93,SW,223,0.0,0.0,98,0.00,,,0.00,WUHU216PEETBRO,2013-08-06 08:02:00,
2013-08-06 04:07:00,75.4,74.7,29.93,SW,223,0.0,0.0,98,0.00,,,0.00,WUHU216PEETBRO,2013-08-06 08:07:00,
2013-08-06 04:12:00,75.3,74.6,29.93,SW,223,0.0,0.0,98,0.00,,,0.00,WUHU216PEETBRO,2013-08-06 08:12:00,
2013-08-06 04:17:00,75.2,74.4,29.93,SW,223,0.0,0.0,98,0.00,,,0.00,WUHU216PEETBRO,2013-08-06 08:17:00,
2013-08-06 04:22:00,75.2,74.5,29.94,SW,223,0.0,0.0,98,0.00,,,0.00,WUHU216PEETBRO,2013-08-06 08:22:00,
2013-08-06 04:27:00,75.1,74.4,29.95,SW,223,0.0,0.0,98,0.00,,,0.00,WUHU216PEETBRO,2013-08-06 08:27:00,
2013-08-06 04:32:00,75.1,74.4,29.95,NE,55,5.0,6.8,98,0.00,,,0.00,WUHU216PEETBRO,2013-08-06 08:32:00,
2013-08-06 04:37:00,75.2,74.5,29.96,NE,45,0.0,6.8,98,0.00,,,0.00,WUHU216PEETBRO,2013-08-06 08:37:00,
2013-08-06 04:42:00,75.2,74.5,29.96,NE,45,0.0,5.5,98,0.00,,,0.00,WUHU216PEETBRO,2013-08-06 08:42:00,
2013-08-06 04:47:00,75.3,74.6,29.96,NNE,32,0.0,0.0,98,0.00,,,0.00,WUHU216PEETBRO,2013-08-06 08:47:00,
2013-08-06 04:52:00,75.2,74.5,29.96,NNE,32,0.0,0.0,98,0.00,,,0.00,WUHU216PEETBRO,2013-08-06 08:52:00,
2013-08-06 04:57:00,75.2,74.5,29.96,NNE,32,0.0,0.0,98,0.00,,,0.00,WUHU216PEETBRO,2013-08-06 08:57:00,
2013-08-06 05:02:00,75.2,74.5,29.96,NNE,32,0.0,0.0,98,0.00,,,0.00,WUHU216PEETBRO,2013-08-06 09:02:00,
2013-08-06 05:07:00,75.1,74.4,29.95,NNE,32,0.0,0.0,98,0.00,,,0.00,WUHU216PEETBRO,2013-08-06 09:07:00,
2013-08-06 05:12:00,75.1,74.5,29.95,NNE,32,0.0,0.0,98,0.00,,,0.00,WUHU216PEETBRO,2013-08-06 09:12:00,
2013-08-06 05:17:00,75.0,74.4,29.95,NNE,32,0.0,0.0,98,0.00,,,0.00,WUHU216PEETBRO,2013-08-06 09:17:00,
2013-08-06 05:22:00,75.1,74.5,29.95,NNE,32,0.0,0.0,98,0.00,,,0.00,WUHU216PEETBRO,2013-08-06 09:22:00,
2013-08-06 05:27:00,75.0,74.4,29.95,NNE,32,0.0,0.0,98,0.00,,,0.00,WUHU216PEETBRO,2013-08-06 09:27:00,
2013-08-06 05:32:00,74.9,74.2,29.95,NNE,32,0.0,0.0,98,0.00,,,0.00,WUHU216PEETBRO,2013-08-06 09:32:00,
2013-08-06 05:37:00,74.9,74.3,29.95,NNE,32,0.0,0.0,98,0.00,,,0.00,WUHU216PEETBRO,2013-08-06 09:37:00,
2013-08-06 05:42:00,74.9,74.3,29.95,NNE,32,0.0,0.0,98,0.00,,,0.00,WUHU216PEETBRO,2013-08-06 09:42:00,
2013-08-06 05:47:00,75.0,74.4,29.96,ENE,76,0.0,3.4,98,0.00,,,0.00,WUHU216PEETBRO,2013-08-06 09:47:00,
2013-08-06 05:52:00,75.0,74.4,29.96,ENE,76,0.0,3.4,98,0.00,,,0.00,WUHU216PEETBRO,2013-08-06 09:52:00,
2013-08-06 05:57:00,75.0,74.4,29.96,ENE,76,0.0,0.0,98,0.00,,,0.00,WUHU216PEETBRO,2013-08-06 09:57:00,
2013-08-06 06:02:00,75.0,74.4,29.96,ENE,76,0.0,0.0,98,0.00,,,0.00,WUHU216PEETBRO,2013-08-06 10:02:00,
2013-08-06 06:07:00,75.0,74.4,29.96,ENE,76,0.0,0.0,98,0.00,,,0.00,WUHU216PEETBRO,2013-08-06 10:07:00,
2013-08-06 06:12:00,75.0,74.4,29.96,ENE,76,0.0,0.0,98,0.00,,,0.00,WUHU216PEETBRO,2013-08-06 10:12:00,
2013-08-06 06:17:00,75.1,74.5,29.96,ENE,76,0.0,0.0,98,0.00,,,0.00,WUHU216PEETBRO,2013-08-06 10:17:00,
2013-08-06 06:22:00,75.1,74.6,29.96,ENE,76,0.0,0.0,98,0.00,,,0.00,WUHU216PEETBRO,2013-08-06 10:22:00,
2013-08-06 06:27:00,75.1,74.5,29.96,ENE,76,0.0,0.0,98,0.00,,,0.00,WUHU216PEETBRO,2013-08-06 10:27:00,
2013-08-06 06:32:00,75.2,74.6,29.96,ENE,76,0.0,0.0,98,0.00,,,0.00,WUHU216PEETBRO,2013-08-06 10:32:00,
2013-08-06 06:37:00,75.1,74.5,29.97,ENE,76,0.0,0.0,98,0.00,,,0.00,WUHU216PEETBRO,2013-08-06 10:37:00,
2013-08-06 06:41:00,75.0,74.4,29.97,ENE,76,0.0,0.0,98,0.00,,,0.00,WUHU216PEETBRO,2013-08-06 10:41:00,
2013-08-06 06:46:00,75.0,74.5,29.96,ENE,76,0.0,0.0,98,0.00,,,0.00,WUHU216PEETBRO,2013-08-06 10:46:00,
2013-08-06 06:52:00,75.0,74.5,29.96,ENE,76,0.0,0.0,98,0.00,,,0.00,WUHU216PEETBRO,2013-08-06 10:52:00,
2013-08-06 06:57:00,75.0,74.5,29.96,ENE,76,0.0,0.0,98,0.00,,,0.00,WUHU216PEETBRO,2013-08-06 10:57:00,
2013-08-06 07:02:00,74.9,74.4,29.97,ENE,76,0.0,0.0,98,0.00,,,0.00,WUHU216PEETBRO,2013-08-06 11:02:00,
2013-08-06 07:07:00,74.8,74.3,29.97,ENE,76,0.0,0.0,98,0.00,,,0.00,WUHU216PEETBRO,2013-08-06 11:07:00,
2013-08-06 07:12:00,74.7,74.2,29.97,ENE,76,0.0,0.0,98,0.00,,,0.00,WUHU216PEETBRO,2013-08-06 11:12:00,
2013-08-06 07:17:00,74.8,74.3,29.97,ENE,76,0.0,0.0,98,0.00,,,0.00,WUHU216PEETBRO,2013-08-06 11:17:00,
2013-08-06 07:22:00,75.0,74.5,29.98,ENE,76,0.0,0.0,99,0.00,,,0.00,WUHU216PEETBRO,2013-08-06 11:22:00,
2013-08-06 07:27:00,75.1,74.6,29.98,ENE,76,0.0,0.0,99,0.00,,,0.00,WUHU216PEETBRO,2013-08-06 11:27:00,
2013-08-06 07:32:00,75.2,74.7,29.98,ENE,76,0.0,0.0,99,0.00,,,0.00,WUHU216PEETBRO,2013-08-06 11:32:00,
2013-08-06 07:37:00,75.2,74.7,29.98,ENE,76,0.0,0.0,99,0.00,,,0.00,WUHU216PEETBRO,2013-08-06 11:37:00,
2013-08-06 07:42:00,75.3,74.8,29.98,ENE,76,0.0,0.0,99,0.00,,,0.00,WUHU216PEETBRO,2013-08-06 11:42:00,
2013-08-06 07:47:00,75.4,74.9,29.98,ENE,76,0.0,0.0,99,0.00,,,0.00,WUHU216PEETBRO,2013-08-06 11:47:00,
2013-08-06 07:52:00,75.4,74.9,29.98,ENE,76,0.0,0.0,99,0.00,,,0.00,WUHU216PEETBRO,2013-08-06 11:52:00,
2013-08-06 07:57:00,75.7,75.3,29.98,ENE,76,0.0,0.0,99,0.00,,,0.00,WUHU216PEETBRO,2013-08-06 11:57:00,
2013-08-06 08:02:00,75.8,75.3,29.98,ENE,76,0.0,0.0,99,0.00,,,0.00,WUHU216PEETBRO,2013-08-06 12:02:00,
2013-08-06 08:07:00,75.9,75.5,29.98,ENE,76,0.0,0.0,99,0.00,,,0.00,WUHU216PEETBRO,2013-08-06 12:07:00,
2013-08-06 08:12:00,76.1,75.7,29.98,ENE,76,0.0,0.0,99,0.00,,,0.00,WUHU216PEETBRO,2013-08-06 12:12:00,
2013-08-06 08:17:00,76.0,75.7,29.98,ENE,76,0.0,0.0,99,0.00,,,0.00,WUHU216PEETBRO,2013-08-06 12:17:00,
2013-08-06 08:22:00,76.2,75.9,29.98,ENE,76,0.0,0.0,99,0.00,,,0.00,WUHU216PEETBRO,2013-08-06 12:22:00,
2013-08-06 08:27:00,76.4,76.2,29.98,ENE,76,0.0,0.0,99,0.00,,,0.00,WUHU216PEETBRO,2013-08-06 12:27:00,
2013-08-06 08:32:00,76.7,76.5,29.98,ENE,76,0.0,0.0,99,0.00,,,0.00,WUHU216PEETBRO,2013-08-06 12:32:00,
2013-08-06 08:37:00,76.8,76.6,29.98,ENE,76,0.0,0.0,99,0.00,,,0.00,WUHU216PEETBRO,2013-08-06 12:37:00,
2013-08-06 08:42:00,76.9,76.7,29.98,ENE,76,0.0,0.0,99,0.00,,,0.00,WUHU216PEETBRO,2013-08-06 12:42:00,
2013-08-06 08:47:00,77.1,76.9,29.98,ENE,76,0.0,0.0,99,0.00,,,0.00,WUHU216PEETBRO,2013-08-06 12:47:00,
2013-08-06 08:52:00,77.5,77.3,29.98,ENE,76,0.0,0.0,99,0.00,,,0.00,WUHU216PEETBRO,2013-08-06 12:52:00,
2013-08-06 08:57:00,77.9,77.6,29.98,ENE,76,0.0,0.0,99,0.00,,,0.00,WUHU216PEETBRO,2013-08-06 12:57:00,
2013-08-06 09:02:00,78.1,77.8,29.98,ENE,76,0.0,0.0,99,0.00,,,0.00,WUHU216PEETBRO,2013-08-06 13:02:00,
2013-08-06 09:07:00,78.4,78.0,29.98,ENE,76,0.0,0.0,99,0.00,,,0.00,WUHU216PEETBRO,2013-08-06 13:07:00,
2013-08-06 09:12:00,78.5,78.1,29.98,ENE,76,0.0,0.0,99,0.00,,,0.00,WUHU216PEETBRO,2013-08-06 13:12:00,
2013-08-06 09:17:00,79.2,78.8,29.98,ENE,76,0.0,0.0,99,0.00,,,0.00,WUHU216PEETBRO,2013-08-06 13:17:00,
2013-08-06 09:22:00,80.0,79.5,29.98,ENE,76,0.0,0.0,98,0.00,,,0.00,WUHU216PEETBRO,2013-08-06 13:22:00,
2013-08-06 09:27:00,80.5,79.8,29.98,ENE,76,0.0,0.0,98,0.00,,,0.00,WUHU216PEETBRO,2013-08-06 13:27:00,
2013-08-06 09:32:00,81.2,80.4,29.99,ENE,76,0.0,0.0,97,0.00,,,0.00,WUHU216PEETBRO,2013-08-06 13:32:00,
2013-08-06 09:37:00,82.1,81.2,29.99,ENE,76,0.0,0.0,97,0.00,,,0.00,WUHU216PEETBRO,2013-08-06 13:37:00,
2013-08-06 09:42:00,82.9,81.6,29.99,NNE,16,0.0,5.2,96,0.00,,,0.00,WUHU216PEETBRO,2013-08-06 13:42:00,
2013-08-06 09:47:00,83.6,81.6,29.99,East,84,0.0,5.4,94,0.00,,,0.00,WUHU216PEETBRO,2013-08-06 13:47:00,
2013-08-06 09:52:00,84.3,81.7,29.99,North,359,3.0,5.7,92,0.00,,,0.00,WUHU216PEETBRO,2013-08-06 13:52:00,
2013-08-06 09:57:00,84.9,81.1,30.00,NE,45,6.5,7.9,88,0.00,,,0.00,WUHU216PEETBRO,2013-08-06 13:57:00,
2013-08-06 10:02:00,85.6,80.2,30.00,North,8,0.0,7.9,84,0.00,,,0.00,WUHU216PEETBRO,2013-08-06 14:02:00,
2013-08-06 10:07:00,85.0,78.5,30.00,SE,131,3.0,6.7,81,0.00,,,0.00,WUHU216PEETBRO,2013-08-06 14:07:00,
2013-08-06 10:12:00,84.4,78.1,30.00,East,101,0.0,5.5,81,0.00,,,0.00,WUHU216PEETBRO,2013-08-06 14:12:00,
2013-08-06 10:17:00,84.1,78.1,30.00,ESE,122,0.0,5.1,82,0.00,,,0.00,WUHU216PEETBRO,2013-08-06 14:17:00,
2013-08-06 10:22:00,83.8,77.6,30.00,ENE,67,0.0,5.1,81,0.00,,,0.00,WUHU216PEETBRO,2013-08-06 14:22:00,
2013-08-06 10:27:00,84.2,78.3,30.00,NNW,338,5.5,5.9,82,0.00,,,0.00,WUHU216PEETBRO,2013-08-06 14:27:00,
2013-08-06 10:32:00,84.9,78.4,30.01,NNW,334,0.0,5.9,81,0.00,,,0.00,WUHU216PEETBRO,2013-08-06 14:32:00,
2013-08-06 10:37:00,85.5,78.1,30.01,North,5,0.0,4.5,78,0.00,,,0.00,WUHU216PEETBRO,2013-08-06 14:37:00,
2013-08-06 10:42:00,86.0,78.1,30.01,NNW,343,3.2,5.0,77,0.00,,,0.00,WUHU216PEETBRO,2013-08-06 14:42:00,
2013-08-06 10:47:00,87.0,78.3,30.01,NNW,344,4.7,5.0,75,0.00,,,0.00,WUHU216PEETBRO,2013-08-06 14:47:00,
2013-08-06 10:52:00,88.0,77.9,30.01,WNW,286,0.0,4.7,72,0.00,,,0.00,WUHU216PEETBRO,2013-08-06 14:52:00,
2013-08-06 10:57:00,88.8,77.5,30.01,NNW,341,3.0,6.2,69,0.00,,,0.00,WUHU216PEETBRO,2013-08-06 14:57:00,
2013-08-06 11:02:00,89.7,77.4,30.01,NW,309,0.0,6.2,67,0.00,,,0.00,WUHU216PEETBRO,2013-08-06 15:02:00,
2013-08-06 11:07:00,90.4,76.9,30.01,NW,309,0.0,6.2,64,0.00,,,0.00,WUHU216PEETBRO,2013-08-06 15:07:00,
2013-08-06 11:12:00,89.8,76.6,30.01,NW,309,0.0,2.5,65,0.00,,,0.00,WUHU216PEETBRO,2013-08-06 15:12:00,
2013-08-06 11:17:00,89.8,77.1,30.01,NW,309,0.0,0.0,66,0.00,,,0.00,WUHU216PEETBRO,2013-08-06 15:17:00,
2013-08-06 11:22:00,90.2,76.4,30.01,NNE,16,4.4,5.0,63,0.00,,,0.00,WUHU216PEETBRO,2013-08-06 15:22:00,
2013-08-06 11:27:00,90.7,75.7,30.01,NNE,14,0.0,5.0,61,0.00,,,0.00,WUHU216PEETBRO,2013-08-06 15:27:00,
2013-08-06 11:32:00,90.2,76.1,30.00,NE,47,5.2,6.7,63,0.00,,,0.00,WUHU216PEETBRO,2013-08-06 15:32:00,
2013-08-06 11:37:00,89.0,75.9,30.01,ESE,111,0.0,7.9,65,0.00,,,0.00,WUHU216PEETBRO,2013-08-06 15:37:00,
2013-08-06 11:42:00,88.2,75.8,30.00,ENE,71,4.2,8.3,66,0.00,,,0.00,WUHU216PEETBRO,2013-08-06 15:42:00,
2013-08-06 11:47:00,88.1,76.5,30.00,NE,47,4.3,8.3,68,0.00,,,0.00,WUHU216PEETBRO,2013-08-06 15:47:00,
2013-08-06 11:52:00,88.5,75.8,30.00,SE,141,3.3,8.2,66,0.00,,,0.00,WUHU216PEETBRO,2013-08-06 15:52:00,
2013-08-06 11:57:00,88.1,76.5,30.00,NNE,28,5.5,8.5,68,0.00,,,0.00,WUHU216PEETBRO,2013-08-06 15:57:00,
2013-08-06 12:02:00,88.3,77.3,30.00,ENE,73,5.6,9.3,69,0.00,,,0.00,WUHU216PEETBRO,2013-08-06 16:02:00,
2013-08-06 12:07:00,88.8,75.9,30.00,East,98,0.0,9.3,65,0.00,,,0.00,WUHU216PEETBRO,2013-08-06 16:07:00,
2013-08-06 12:12:00,88.9,75.6,30.00,ESE,115,0.0,8.8,64,0.00,,,0.00,WUHU216PEETBRO,2013-08-06 16:12:00,
2013-08-06 12:17:00,88.9,76.9,29.99,East,80,4.7,8.6,67,0.00,,,0.00,WUHU216PEETBRO,2013-08-06 16:17:00,
2013-08-06 12:22:00,89.2,76.4,29.99,NE,40,0.0,8.6,65,0.00,,,0.00,WUHU216PEETBRO,2013-08-06 16:22:00,
2013-08-06 12:27:00,89.8,76.2,29.99,NNE,32,0.0,7.2,64,0.00,,,0.00,WUHU216PEETBRO,2013-08-06 16:27:00,
2013-08-06 12:32:00,90.8,75.8,29.99,North,352,0.0,7.2,61,0.00,,,0.00,WUHU216PEETBRO,2013-08-06 16:32:00,
2013-08-06 12:37:00,91.0,76.0,29.98,East,91,3.3,6.9,61,0.00,,,0.00,WUHU216PEETBRO,2013-08-06 16:37:00,
2013-08-06 12:42:00,90.6,76.0,29.98,East,94,0.0,6.9,62,0.00,,,0.00,WUHU216PEETBRO,2013-08-06 16:42:00,
2013-08-06 12:47:00,90.2,75.2,29.98,SSE,155,3.2,7.8,61,0.00,,,0.00,WUHU216PEETBRO,2013-08-06 16:47:00,
2013-08-06 12:52:00,90.1,75.6,29.98,NE,43,8.4,8.6,62,0.00,,,0.00,WUHU216PEETBRO,2013-08-06 16:52:00,
2013-08-06 12:57:00,90.0,76.2,29.98,East,80,0.0,9.8,63,0.00,,,0.00,WUHU216PEETBRO,2013-08-06 16:57:00,
2013-08-06 13:02:00,91.2,75.9,29.98,NE,42,7.8,9.8,61,0.00,,,0.00,WUHU216PEETBRO,2013-08-06 17:02:00,
2013-08-06 13:07:00,91.1,74.8,29.98,ENE,64,3.1,9.2,59,0.00,,,0.00,WUHU216PEETBRO,2013-08-06 17:07:00,
2013-08-06 13:12:00,91.1,75.3,29.98,ENE,57,4.7,8.6,59,0.00,,,0.00,WUHU216PEETBRO,2013-08-06 17:12:00,
2013-08-06 13:17:00,91.9,74.7,29.98,East,83,8.7,8.8,57,0.00,,,0.00,WUHU216PEETBRO,2013-08-06 17:17:00,
2013-08-06 13:22:00,91.8,74.9,29.98,East,86,0.0,8.8,57,0.00,,,0.00,WUHU216PEETBRO,2013-08-06 17:22:00,
2013-08-06 13:27:00,90.8,74.8,29.98,SSE,167,6.0,9.8,59,0.00,,,0.00,WUHU216PEETBRO,2013-08-06 17:27:00,
2013-08-06 13:28:00,90.6,74.9,29.98,SSE,149,4.5,9.8,60,0.00,,,0.00,WUHU216PEETBRO,2013-08-06 17:28:00,
2013-08-06 13:33:00,90.0,74.5,29.98,SE,136,6.8,9.8,60,0.00,,,0.00,WUHU216PEETBRO,2013-08-06 17:33:00,
2013-08-06 13:38:00,89.7,75.3,29.97,NE,45,5.7,7.6,62,0.00,,,0.00,WUHU216PEETBRO,2013-08-06 17:38:00,
2013-08-06 13:43:00,90.0,75.6,29.97,ESE,118,0.0,7.1,62,0.00,,,0.00,WUHU216PEETBRO,2013-08-06 17:43:00,
2013-08-06 13:48:00,90.0,74.7,29.97,ESE,118,0.0,7.1,60,0.00,,,0.00,WUHU216PEETBRO,2013-08-06 17:48:00,
2013-08-06 13:53:00,90.3,74.5,29.97,NNE,28,0.0,6.2,59,0.00,,,0.00,WUHU216PEETBRO,2013-08-06 17:53:00,
2013-08-06 13:58:00,91.1,73.7,29.97,SSE,152,5.4,6.4,56,0.00,,,0.00,WUHU216PEETBRO,2013-08-06 17:58:00,
2013-08-06 14:03:00,91.5,73.8,29.97,SE,134,2.7,6.4,56,0.00,,,0.00,WUHU216PEETBRO,2013-08-06 18:03:00,
2013-08-06 14:08:00,91.7,73.8,29.97,NE,47,4.6,4.7,56,0.00,,,0.00,WUHU216PEETBRO,2013-08-06 18:08:00,
2013-08-06 14:13:00,91.6,73.6,29.97,ESE,119,6.0,7.2,55,0.00,,,0.00,WUHU216PEETBRO,2013-08-06 18:13:00,
2013-08-06 14:18:00,90.7,73.9,29.97,North,1,0.0,7.2,58,0.00,,,0.00,WUHU216PEETBRO,2013-08-06 18:18:00,
2013-08-06 14:23:00,90.2,73.7,29.96,North,1,0.0,5.0,58,0.00,,,0.00,WUHU216PEETBRO,2013-08-06 18:23:00,
2013-08-06 14:28:00,90.3,73.9,29.96,North,1,0.0,0.0,58,0.00,,,0.00,WUHU216PEETBRO,2013-08-06 18:28:00,
2013-08-06 14:33:00,91.1,73.8,29.96,North,1,0.0,0.0,57,0.00,,,0.00,WUHU216PEETBRO,2013-08-06 18:33:00,
2013-08-06 14:38:00,92.7,73.4,29.96,ENE,64,0.0,3.4,53,0.00,,,0.00,WUHU216PEETBRO,2013-08-06 18:38:00,
2013-08-06 14:43:00,92.4,73.5,29.96,SSE,149,3.3,4.7,54,0.00,,,0.00,WUHU216PEETBRO,2013-08-06 18:43:00,
2013-08-06 14:48:00,92.3,74.2,29.96,NE,53,5.4,8.1,55,0.00,,,0.00,WUHU216PEETBRO,2013-08-06 18:48:00,
2013-08-06 14:53:00,93.1,73.5,29.96,NNE,15,0.0,8.1,53,0.00,,,0.00,WUHU216PEETBRO,2013-08-06 18:53:00,
2013-08-06 14:58:00,93.7,74.1,29.96,NE,55,0.0,5.0,53,0.00,,,0.00,WUHU216PEETBRO,2013-08-06 18:58:00,
2013-08-06 15:03:00,94.7,72.9,29.95,North,8,2.9,6.3,49,0.00,,,0.00,WUHU216PEETBRO,2013-08-06 19:03:00,
2013-08-06 15:08:00,95.7,73.2,29.95,NNE,21,6.5,6.5,48,0.00,,,0.00,WUHU216PEETBRO,2013-08-06 19:08:00,
2013-08-06 15:13:00,96.0,72.7,29.95,SE,131,7.0,7.9,47,0.00,,,0.00,WUHU216PEETBRO,2013-08-06 19:13:00,
2013-08-06 15:18:00,94.8,74.5,29.95,ENE,59,8.6,10.4,52,0.00,,,0.00,WUHU216PEETBRO,2013-08-06 19:18:00,
2013-08-06 15:23:00,94.3,74.5,29.95,NE,46,3.4,10.4,53,0.00,,,0.00,WUHU216PEETBRO,2013-08-06 19:23:00,
2013-08-06 15:28:00,92.9,74.5,29.95,ESE,107,0.0,9.6,55,0.00,,,0.00,WUHU216PEETBRO,2013-08-06 19:28:00,
2013-08-06 15:33:00,91.3,74.1,29.95,SE,127,0.0,7.4,57,0.00,,,0.00,WUHU216PEETBRO,2013-08-06 19:33:00,
2013-08-06 15:38:00,91.1,74.9,29.95,ENE,59,3.2,8.7,59,0.00,,,0.00,WUHU216PEETBRO,2013-08-06 19:38:00,
2013-08-06 15:43:00,91.8,75.6,29.95,ENE,59,8.2,11.6,59,0.00,,,0.00,WUHU216PEETBRO,2013-08-06 19:43:00,
2013-08-06 15:48:00,92.9,74.2,29.95,ENE,69,7.0,11.6,54,0.00,,,0.00,WUHU216PEETBRO,2013-08-06 19:48:00,
2013-08-06 15:53:00,93.8,74.7,29.94,NE,49,9.2,11.3,54,0.00,,,0.00,WUHU216PEETBRO,2013-08-06 19:53:00,
2013-08-06 15:58:00,94.7,74.3,29.95,East,90,8.3,12.1,52,0.00,,,0.00,WUHU216PEETBRO,2013-08-06 19:58:00,
2013-08-06 16:03:00,94.9,75.0,29.94,ENE,60,7.5,12.9,52,0.00,,,0.00,WUHU216PEETBRO,2013-08-06 20:03:00,
2013-08-06 16:08:00,94.1,75.4,29.94,ENE,66,11.4,18.1,54,0.00,,,0.00,WUHU216PEETBRO,2013-08-06 20:08:00,
2013-08-06 16:13:00,92.9,75.3,29.94,ENE,67,12.0,18.1,56,0.00,,,0.00,WUHU216PEETBRO,2013-08-06 20:13:00,
2013-08-06 16:18:00,92.2,75.5,29.94,East,90,4.3,16.8,58,0.00,,,0.00,WUHU216PEETBRO,2013-08-06 20:18:00,
2013-08-06 16:23:00,92.2,74.7,29.94,ENE,64,7.8,13.4,56,0.00,,,0.00,WUHU216PEETBRO,2013-08-06 20:23:00,
2013-08-06 16:28:00,92.4,74.5,29.94,ENE,62,5.3,12.1,56,0.00,,,0.00,WUHU216PEETBRO,2013-08-06 20:28:00,
2013-08-06 16:32:00,91.6,74.4,29.95,North,2,4.7,12.1,57,0.00,,,0.00,WUHU216PEETBRO,2013-08-06 20:32:00,
2013-08-06 16:37:00,90.0,75.4,29.95,NE,53,5.1,8.6,62,0.00,,,0.00,WUHU216PEETBRO,2013-08-06 20:37:00,
2013-08-06 16:42:00,89.7,75.9,29.95,ENE,57,7.5,8.5,63,0.00,,,0.00,WUHU216PEETBRO,2013-08-06 20:42:00,
2013-08-06 16:47:00,89.8,75.2,29.95,NE,49,5.1,12.0,62,0.00,,,0.00,WUHU216PEETBRO,2013-08-06 20:47:00,
2013-08-06 16:52:00,89.8,75.4,29.95,ESE,111,7.3,12.0,62,0.00,,,0.00,WUHU216PEETBRO,2013-08-06 20:52:00,
2013-08-06 16:57:00,89.9,75.0,29.94,NE,50,7.6,10.7,61,0.00,,,0.00,WUHU216PEETBRO,2013-08-06 20:57:00,
2013-08-06 17:02:00,89.7,75.4,29.95,NE,56,4.5,10.7,62,0.00,,,0.00,WUHU216PEETBRO,2013-08-06 21:02:00,
2013-08-06 17:07:00,89.5,75.6,29.95,ENE,77,5.7,7.8,63,0.00,,,0.00,WUHU216PEETBRO,2013-08-06 21:07:00,
2013-08-06 17:12:00,89.0,75.7,29.95,SE,124,0.0,6.2,64,0.00,,,0.00,WUHU216PEETBRO,2013-08-06 21:12:00,
2013-08-06 17:17:00,88.9,76.6,29.95,ENE,74,0.0,6.2,66,0.00,,,0.00,WUHU216PEETBRO,2013-08-06 21:17:00,
2013-08-06 17:22:00,88.4,76.0,29.95,ENE,76,5.0,9.6,66,0.00,,,0.00,WUHU216PEETBRO,2013-08-06 21:22:00,
2013-08-06 17:27:00,88.2,75.4,29.95,NE,46,6.6,9.6,65,0.00,,,0.00,WUHU216PEETBRO,2013-08-06 21:27:00,
2013-08-06 17:32:00,88.2,75.6,29.95,NE,43,5.2,9.6,66,0.00,,,0.00,WUHU216PEETBRO,2013-08-06 21:32:00,
2013-08-06 17:37:00,88.3,75.0,29.95,NE,50,5.1,9.6,64,0.00,,,0.00,WUHU216PEETBRO,2013-08-06 21:37:00,
2013-08-06 17:42:00,88.5,75.1,29.94,NNE,32,5.8,9.1,64,0.00,,,0.00,WUHU216PEETBRO,2013-08-06 21:42:00,
2013-08-06 17:47:00,89.1,75.5,29.94,NE,42,5.6,9.3,64,0.00,,,0.00,WUHU216PEETBRO,2013-08-06 21:47:00,
2013-08-06 17:52:00,89.8,75.0,29.94,ENE,63,0.0,9.3,61,0.00,,,0.00,WUHU216PEETBRO,2013-08-06 21:52:00,
2013-08-06 17:57:00,90.4,74.8,29.93,ENE,57,5.7,8.9,60,0.00,,,0.00,WUHU216PEETBRO,2013-08-06 21:57:00,
2013-08-06 18:02:00,91.0,72.9,29.93,ENE,60,11.1,12.7,55,0.00,,,0.00,WUHU216PEETBRO,2013-08-06 22:02:00,
2013-08-06 18:07:00,91.0,72.4,29.93,ENE,60,4.2,12.7,54,0.00,,,0.00,WUHU216PEETBRO,2013-08-06 22:07:00,
2013-08-06 18:12:00,90.7,72.6,29.94,NE,52,5.2,12.6,55,0.00,,,0.00,WUHU216PEETBRO,2013-08-06 22:12:00,
2013-08-06 18:17:00,90.4,72.9,29.94,North,2,0.0,8.8,56,0.00,,,0.00,WUHU216PEETBRO,2013-08-06 22:17:00,
2013-08-06 18:22:00,90.3,73.0,29.95,NNE,22,5.2,8.1,57,0.00,,,0.00,WUHU216PEETBRO,2013-08-06 22:22:00,
2013-08-06 18:27:00,90.2,72.8,29.95,NE,40,8.8,10.4,56,0.00,,,0.00,WUHU216PEETBRO,2013-08-06 22:27:00,
2013-08-06 18:32:00,90.2,72.8,29.95,North,359,6.1,10.4,56,0.00,,,0.00,WUHU216PEETBRO,2013-08-06 22:32:00,
2013-08-06 18:37:00,90.2,72.8,29.96,ENE,69,3.4,8.3,56,0.00,,,0.00,WUHU216PEETBRO,2013-08-06 22:37:00,
2013-08-06 18:42:00,89.9,72.8,29.96,ENE,60,5.7,8.5,57,0.00,,,0.00,WUHU216PEETBRO,2013-08-06 22:42:00,
2013-08-06 18:47:00,89.7,72.6,29.96,NNE,23,4.3,8.5,57,0.00,,,0.00,WUHU216PEETBRO,2013-08-06 22:47:00,
2013-08-06 18:52:00,89.4,72.5,29.96,ENE,77,4.8,8.5,57,0.00,,,0.00,WUHU216PEETBRO,2013-08-06 22:52:00,
2013-08-06 18:57:00,89.1,72.6,29.96,ENE,62,7.1,11.0,58,0.00,,,0.00,WUHU216PEETBRO,2013-08-06 22:57:00,
2013-08-06 19:02:00,89.1,73.1,29.95,NE,47,6.8,11.0,59,0.00,,,0.00,WUHU216PEETBRO,2013-08-06 23:02:00,
2013-08-06 19:07:00,89.1,73.4,29.96,ENE,73,8.0,11.1,59,0.00,,,0.00,WUHU216PEETBRO,2013-08-06 23:07:00,
2013-08-06 19:12:00,88.9,73.3,29.96,ENE,64,3.0,11.2,60,0.00,,,0.00,WUHU216PEETBRO,2013-08-06 23:12:00,
2013-08-06 19:17:00,88.6,73.2,29.96,ENE,71,4.3,11.2,60,0.00,,,0.00,WUHU216PEETBRO,2013-08-06 23:17:00,
2013-08-06 19:22:00,88.1,73.1,29.96,ENE,70,4.2,9.4,61,0.00,,,0.00,WUHU216PEETBRO,2013-08-06 23:22:00,
2013-08-06 19:27:00,87.7,73.0,29.97,NE,50,8.7,9.8,61,0.00,,,0.00,WUHU216PEETBRO,2013-08-06 23:27:00,
2013-08-06 19:32:00,87.4,73.2,29.97,ENE,62,3.2,9.8,62,0.00,,,0.00,WUHU216PEETBRO,2013-08-06 23:32:00,
2013-08-06 19:37:00,87.1,73.5,29.97,ENE,71,7.1,9.8,64,0.00,,,0.00,WUHU216PEETBRO,2013-08-06 23:37:00,
2013-08-06 19:42:00,86.8,73.9,29.97,NE,49,5.2,9.3,65,0.00,,,0.00,WUHU216PEETBRO,2013-08-06 23:42:00,
2013-08-06 19:47:00,86.5,74.1,29.97,NNE,26,4.5,9.3,66,0.00,,,0.00,WUHU216PEETBRO,2013-08-06 23:47:00,
2013-08-06 19:52:00,86.4,74.8,29.98,East,86,3.2,7.9,68,0.00,,,0.00,WUHU216PEETBRO,2013-08-06 23:52:00,
2013-08-06 19:57:00,86.0,75.3,29.98,NE,45,4.2,10.0,70,0.00,,,0.00,WUHU216PEETBRO,2013-08-06 23:57:00,
2013-08-06 20:02:00,85.7,75.7,29.97,NE,42,6.3,10.0,72,0.00,,,0.00,WUHU216PEETBRO,2013-08-07 00:02:00,
2013-08-06 20:07:00,85.2,75.8,29.97,ENE,63,6.7,10.6,73,0.00,,,0.00,WUHU216PEETBRO,2013-08-07 00:07:00,
2013-08-06 20:12:00,84.8,75.7,29.97,ESE,112,0.0,10.6,74,0.00,,,0.00,WUHU216PEETBRO,2013-08-07 00:12:00,
2013-08-06 20:17:00,84.5,75.8,29.97,East,86,4.2,9.3,75,0.00,,,0.00,WUHU216PEETBRO,2013-08-07 00:17:00,
2013-08-06 20:22:00,84.4,76.0,29.97,ENE,66,5.6,9.3,76,0.00,,,0.00,WUHU216PEETBRO,2013-08-07 00:22:00,
2013-08-06 20:27:00,84.1,76.0,29.97,NE,56,3.3,8.1,76,0.00,,,0.00,WUHU216PEETBRO,2013-08-07 00:27:00,
2013-08-06 20:32:00,83.9,76.0,29.97,NE,53,6.6,9.1,77,0.00,,,0.00,WUHU216PEETBRO,2013-08-07 00:32:00,
2013-08-06 20:37:00,83.8,76.2,29.98,NE,55,6.6,9.6,78,0.00,,,0.00,WUHU216PEETBRO,2013-08-07 00:37:00,
2013-08-06 20:42:00,83.5,76.0,29.98,NNE,32,6.5,9.6,78,0.00,,,0.00,WUHU216PEETBRO,2013-08-07 00:42:00,
2013-08-06 20:47:00,83.4,76.1,29.98,NNE,32,7.0,8.1,78,0.00,,,0.00,WUHU216PEETBRO,2013-08-07 00:47:00,
2013-08-06 20:52:00,83.3,76.3,29.98,NE,56,7.3,8.7,79,0.00,,,0.00,WUHU216PEETBRO,2013-08-07 00:52:00,
2013-08-06 20:57:00,83.2,76.5,29.98,ENE,64,6.5,10.4,80,0.00,,,0.00,WUHU216PEETBRO,2013-08-07 00:57:00,
2013-08-06 21:02:00,83.1,76.6,29.98,ENE,59,4.5,10.4,81,0.00,,,0.00,WUHU216PEETBRO,2013-08-07 01:02:00,
2013-08-06 21:07:00,82.9,76.7,29.98,NE,45,2.9,8.5,81,0.00,,,0.00,WUHU216PEETBRO,2013-08-07 01:07:00,
2013-08-06 21:12:00,82.8,76.8,29.98,ENE,67,4.2,8.5,82,0.00,,,0.00,WUHU216PEETBRO,2013-08-07 01:12:00,
2013-08-06 21:17:00,82.5,76.7,29.99,NE,42,3.0,8.2,83,0.00,,,0.00,WUHU216PEETBRO,2013-08-07 01:17:00,
2013-08-06 21:22:00,82.4,76.8,29.99,NE,55,6.2,8.8,83,0.00,,,0.00,WUHU216PEETBRO,2013-08-07 01:22:00,
2013-08-06 21:27:00,82.3,77.0,29.99,ENE,59,4.8,8.8,84,0.00,,,0.00,WUHU216PEETBRO,2013-08-07 01:27:00,
2013-08-06 21:32:00,82.1,77.0,29.99,NE,43,0.0,8.7,84,0.00,,,0.00,WUHU216PEETBRO,2013-08-07 01:32:00,
2013-08-06 21:37:00,82.1,77.3,29.98,ENE,60,4.6,10.0,85,0.00,,,0.00,WUHU216PEETBRO,2013-08-07 01:37:00,
2013-08-06 21:42:00,82.0,77.4,29.99,NE,35,1.6,10.0,86,0.00,,,0.00,WUHU216PEETBRO,2013-08-07 01:42:00,
2013-08-06 21:47:00,81.7,77.3,29.99,NNE,15,0.0,7.1,87,0.00,,,0.00,WUHU216PEETBRO,2013-08-07 01:47:00,
2013-08-06 21:52:00,81.6,77.3,29.99,ENE,60,0.0,7.1,87,0.00,,,0.00,WUHU216PEETBRO,2013-08-07 01:52:00,
2013-08-06 21:57:00,81.5,77.4,29.99,ENE,60,0.0,4.5,87,0.00,,,0.00,WUHU216PEETBRO,2013-08-07 01:57:00,
2013-08-06 22:02:00,81.5,77.6,30.00,ENE,71,0.0,5.3,88,0.00,,,0.00,WUHU216PEETBRO,2013-08-07 02:02:00,
2013-08-06 22:07:00,81.4,77.6,30.00,NE,53,0.0,5.3,88,0.00,,,0.00,WUHU216PEETBRO,2013-08-07 02:07:00,
2013-08-06 22:12:00,81.4,77.7,30.00,ENE,73,0.0,4.5,88,0.00,,,0.00,WUHU216PEETBRO,2013-08-07 02:12:00,
2013-08-06 22:17:00,81.4,77.8,30.00,NE,38,2.0,4.6,89,0.00,,,0.00,WUHU216PEETBRO,2013-08-07 02:17:00,
2013-08-06 22:22:00,81.3,77.9,30.00,NE,45,3.1,6.2,89,0.00,,,0.00,WUHU216PEETBRO,2013-08-07 02:22:00,
2013-08-06 22:27:00,81.4,78.1,30.00,NNE,31,0.0,7.1,90,0.00,,,0.00,WUHU216PEETBRO,2013-08-07 02:27:00,
2013-08-06 22:32:00,81.3,78.1,30.00,NE,47,4.7,7.2,90,0.00,,,0.00,WUHU216PEETBRO,2013-08-07 02:32:00,
2013-08-06 22:37:00,81.3,78.1,30.00,NE,46,4.3,8.1,90,0.00,,,0.00,WUHU216PEETBRO,2013-08-07 02:37:00,
2013-08-06 22:42:00,81.2,78.1,30.00,NE,52,4.9,8.1,91,0.00,,,0.00,WUHU216PEETBRO,2013-08-07 02:42:00,
2013-08-06 22:47:00,81.1,78.1,30.00,NE,49,0.0,6.5,91,0.00,,,0.00,WUHU216PEETBRO,2013-08-07 02:47:00,
2013-08-06 22:52:00,81.0,78.0,30.00,NE,49,0.0,5.5,91,0.00,,,0.00,WUHU216PEETBRO,2013-08-07 02:52:00,
2013-08-06 22:57:00,80.9,78.0,30.00,NE,49,0.0,0.0,91,0.00,,,0.00,WUHU216PEETBRO,2013-08-07 02:57:00,
2013-08-06 23:02:00,80.8,77.9,30.01,NE,49,0.0,0.0,91,0.00,,,0.00,WUHU216PEETBRO,2013-08-07 03:02:00,
2013-08-06 23:07:00,80.6,77.8,30.01,NE,49,0.0,0.0,91,0.00,,,0.00,WUHU216PEETBRO,2013-08-07 03:07:00,
2013-08-06 23:12:00,80.5,77.7,30.01,NE,49,0.0,0.0,91,0.00,,,0.00,WUHU216PEETBRO,2013-08-07 03:12:00,
2013-08-06 23:17:00,80.5,77.8,30.01,NE,49,0.0,0.0,92,0.00,,,0.00,WUHU216PEETBRO,2013-08-07 03:17:00,
2013-08-06 23:22:00,80.5,77.8,30.01,NE,49,0.0,0.0,92,0.00,,,0.00,WUHU216PEETBRO,2013-08-07 03:22:00,
2013-08-06 23:27:00,80.4,77.8,30.01,NNE,15,0.0,3.3,92,0.00,,,0.00,WUHU216PEETBRO,2013-08-07 03:27:00,
2013-08-06 23:32:00,80.5,77.9,30.01,NE,43,0.0,3.5,92,0.00,,,0.00,WUHU216PEETBRO,2013-08-07 03:32:00,
2013-08-06 23:37:00,80.5,78.0,30.00,NE,43,0.0,3.5,92,0.00,,,0.00,WUHU216PEETBRO,2013-08-07 03:37:00,
2013-08-06 23:42:00,80.5,78.0,30.01,NE,43,0.0,0.0,92,0.00,,,0.00,WUHU216PEETBRO,2013-08-07 03:42:00,
2013-08-06 23:47:00,80.4,78.0,30.01,NE,43,0.0,0.0,92,0.00,,,0.00,WUHU216PEETBRO,2013-08-07 03:47:00,
2013-08-06 23:52:00,80.3,77.9,30.00,NE,43,0.0,0.0,93,0.00,,,0.00,WUHU216PEETBRO,2013-08-07 03:52:00,
2013-08-06 23:57:00,80.3,78.0,30.00,NE,43,0.0,0.0,93,0.00,,,0.00,WUHU216PEETBRO,2013-08-07 03:57:00,